Tracking 29969 objects as of 6-Dec-2024
HD Live streaming from Space Station
objects crossing your sky now

ITALSAT 1

Track ITALSAT 1 now!
ITALSAT 1 is classified as:


NORAD ID: 21055
Int'l Code: 1991-003A
Perigee: 35,843.5 km
Apogee: 35,916.8 km
Inclination: 14.7 °
Period: 1,440.5 minutes
Semi major axis: 42251 km
RCS: 3.4358 m2 (large)
Launch date: January 15, 1991
Source: Italy (IT)
Launch site: FRENCH GUIANA (FRGUI)
Your satellite tracking list
Your tracking list is empty




NASA's NSSDC Master Catalog

Two Line Element Set (TLE):
1 21055U 91003A   24341.49765124 -.00000343  00000-0  00000+0 0  9998
2 21055  14.6832 355.7327 0008678  36.4371 338.5855  0.99964234111617
Source of the keplerian elements: AFSPC